Time,TemperatureF,DewpointF,PressureIn,WindDirection,WindDirectionDegrees,WindSpeedMPH,WindSpeedGustMPH,Humidity,HourlyPrecipIn,Conditions,Clouds,dailyrainin,SolarRadiationWatts/m^2,SoftwareType,DateUTC
2013-05-08 00:02:00,64.2,48.2,29.96,West,265,0.0,4.0,56,0.00,,,0.00,0.0,meteohub,2013-05-08 05:02:00,
2013-05-08 00:07:00,64.0,48.0,29.95,West,263,1.0,4.0,56,0.00,,,0.00,0.0,meteohub,2013-05-08 05:07:00,
2013-05-08 00:12:00,63.9,48.4,29.96,West,263,0.0,2.0,57,0.00,,,0.00,0.0,meteohub,2013-05-08 05:12:00,
2013-05-08 00:17:00,63.7,48.2,29.96,West,263,0.0,2.0,57,0.00,,,0.00,0.0,meteohub,2013-05-08 05:17:00,
2013-05-08 00:22:00,63.7,48.6,29.96,West,263,0.0,2.0,58,0.00,,,0.00,0.0,meteohub,2013-05-08 05:22:00,
2013-05-08 00:27:00,63.3,48.7,29.96,West,263,0.0,1.0,59,0.00,,,0.00,0.0,meteohub,2013-05-08 05:27:00,
2013-05-08 00:33:00,63.1,48.6,29.96,WNW,288,0.0,1.0,59,0.00,,,0.00,0.0,meteohub,2013-05-08 05:33:00,
2013-05-08 00:38:00,63.0,48.9,29.96,WNW,289,0.0,1.0,60,0.00,,,0.00,0.0,meteohub,2013-05-08 05:38:00,
2013-05-08 00:43:00,63.0,48.4,29.96,WNW,289,0.0,1.0,59,0.00,,,0.00,0.0,meteohub,2013-05-08 05:43:00,
2013-05-08 00:48:00,63.0,49.3,29.96,WNW,289,0.0,1.0,61,0.00,,,0.00,0.0,meteohub,2013-05-08 05:48:00,
2013-05-08 00:53:00,62.6,49.5,29.96,WNW,289,0.0,1.0,62,0.00,,,0.00,0.0,meteohub,2013-05-08 05:53:00,
2013-05-08 00:58:00,62.6,48.9,29.95,WNW,289,0.0,1.0,61,0.00,,,0.00,0.0,meteohub,2013-05-08 05:58:00,
2013-05-08 01:03:00,62.6,48.9,29.95,WNW,289,0.0,1.0,61,0.00,,,0.00,0.0,meteohub,2013-05-08 06:03:00,
2013-05-08 01:08:00,62.4,48.7,29.95,WNW,289,0.0,0.0,61,0.00,,,0.00,0.0,meteohub,2013-05-08 06:08:00,
2013-05-08 01:13:00,62.1,48.9,29.95,WNW,289,0.0,0.0,62,0.00,,,0.00,0.0,meteohub,2013-05-08 06:13:00,
2013-05-08 01:18:00,61.9,48.7,29.95,WNW,289,0.0,0.0,62,0.00,,,0.00,0.0,meteohub,2013-05-08 06:18:00,
2013-05-08 01:23:00,61.9,48.7,29.95,WNW,289,0.0,0.0,62,0.00,,,0.00,0.0,meteohub,2013-05-08 06:23:00,
2013-05-08 01:28:00,61.9,48.7,29.95,WNW,289,0.0,0.0,62,0.00,,,0.00,0.0,meteohub,2013-05-08 06:28:00,
2013-05-08 01:33:00,61.9,48.7,29.95,WNW,289,0.0,0.0,62,0.00,,,0.00,0.0,meteohub,2013-05-08 06:33:00,
2013-05-08 01:38:00,61.9,48.7,29.95,WNW,289,0.0,0.0,62,0.00,,,0.00,0.0,meteohub,2013-05-08 06:38:00,
2013-05-08 01:43:00,62.2,48.2,29.95,WNW,289,0.0,0.0,60,0.00,,,0.00,0.0,meteohub,2013-05-08 06:43:00,
2013-05-08 01:48:00,62.4,49.3,29.95,WNW,289,0.0,0.0,62,0.00,,,0.00,0.0,meteohub,2013-05-08 06:48:00,
2013-05-08 01:53:00,62.4,49.3,29.95,WNW,289,0.0,0.0,62,0.00,,,0.00,0.0,meteohub,2013-05-08 06:53:00,
2013-05-08 01:58:00,62.2,49.1,29.95,WNW,289,0.0,0.0,62,0.00,,,0.00,0.0,meteohub,2013-05-08 06:58:00,
2013-05-08 02:03:00,62.2,49.5,29.95,WNW,289,0.0,0.0,63,0.00,,,0.00,0.0,meteohub,2013-05-08 07:03:00,
2013-05-08 02:08:00,62.2,49.1,29.95,WNW,289,0.0,0.0,62,0.00,,,0.00,0.0,meteohub,2013-05-08 07:08:00,
2013-05-08 02:13:00,62.2,49.1,29.95,WNW,289,0.0,0.0,62,0.00,,,0.00,0.0,meteohub,2013-05-08 07:13:00,
2013-05-08 02:18:00,62.2,49.1,29.95,WNW,289,0.0,0.0,62,0.00,,,0.00,0.0,meteohub,2013-05-08 07:18:00,
2013-05-08 02:23:00,62.4,48.7,29.95,WNW,289,0.0,0.0,61,0.00,,,0.00,0.0,meteohub,2013-05-08 07:23:00,
2013-05-08 02:28:00,62.2,48.6,29.95,WNW,289,0.0,0.0,61,0.00,,,0.00,0.0,meteohub,2013-05-08 07:28:00,
2013-05-08 02:33:00,62.2,49.1,29.94,WNW,289,0.0,0.0,62,0.00,,,0.00,0.0,meteohub,2013-05-08 07:33:00,
2013-05-08 02:38:00,62.4,48.7,29.95,WNW,289,0.0,0.0,61,0.00,,,0.00,0.0,meteohub,2013-05-08 07:38:00,
2013-05-08 02:43:00,62.4,48.7,29.95,WNW,289,0.0,0.0,61,0.00,,,0.00,0.0,meteohub,2013-05-08 07:43:00,
2013-05-08 02:48:00,62.4,49.3,29.94,WNW,289,0.0,0.0,62,0.00,,,0.00,0.0,meteohub,2013-05-08 07:48:00,
2013-05-08 02:53:00,62.4,48.7,29.94,WNW,289,0.0,0.0,61,0.00,,,0.00,0.0,meteohub,2013-05-08 07:53:00,
2013-05-08 02:58:00,62.1,48.4,29.94,WNW,289,0.0,0.0,61,0.00,,,0.00,0.0,meteohub,2013-05-08 07:58:00,
2013-05-08 03:03:00,62.1,48.9,29.94,WNW,289,0.0,0.0,62,0.00,,,0.00,0.0,meteohub,2013-05-08 08:03:00,
2013-05-08 03:08:00,62.1,49.3,29.94,WNW,289,0.0,0.0,63,0.00,,,0.00,0.0,meteohub,2013-05-08 08:08:00,
2013-05-08 03:13:00,61.9,49.1,29.94,WNW,289,0.0,0.0,63,0.00,,,0.00,0.0,meteohub,2013-05-08 08:13:00,
2013-05-08 03:18:00,61.7,48.9,29.94,WNW,289,0.0,0.0,63,0.00,,,0.00,0.0,meteohub,2013-05-08 08:18:00,
2013-05-08 03:23:00,61.5,49.3,29.94,WNW,289,0.0,0.0,64,0.00,,,0.00,0.0,meteohub,2013-05-08 08:23:00,
2013-05-08 03:29:00,61.5,48.7,29.94,WNW,289,0.0,0.0,63,0.00,,,0.00,0.0,meteohub,2013-05-08 08:29:00,
2013-05-08 03:34:00,61.3,49.1,29.94,WNW,289,0.0,0.0,64,0.00,,,0.00,0.0,meteohub,2013-05-08 08:34:00,
2013-05-08 03:39:00,61.5,49.3,29.94,WNW,289,0.0,0.0,64,0.00,,,0.00,0.0,meteohub,2013-05-08 08:39:00,
2013-05-08 03:44:00,61.3,49.8,29.94,WNW,289,0.0,0.0,66,0.00,,,0.00,0.0,meteohub,2013-05-08 08:44:00,
2013-05-08 03:49:00,61.2,49.3,29.94,WNW,289,0.0,1.0,65,0.00,,,0.00,0.0,meteohub,2013-05-08 08:49:00,
2013-05-08 03:54:00,61.0,49.1,29.94,WNW,289,0.0,1.0,65,0.00,,,0.00,0.0,meteohub,2013-05-08 08:54:00,
2013-05-08 03:59:00,61.0,49.1,29.94,WNW,289,0.0,0.0,65,0.00,,,0.00,0.0,meteohub,2013-05-08 08:59:00,
2013-05-08 04:04:00,61.0,48.7,29.94,WNW,289,0.0,0.0,64,0.00,,,0.00,0.0,meteohub,2013-05-08 09:04:00,
2013-05-08 04:09:00,61.2,49.3,29.94,WNW,289,0.0,0.0,65,0.00,,,0.00,0.0,meteohub,2013-05-08 09:09:00,
2013-05-08 04:14:00,60.6,49.6,29.94,WNW,289,0.0,0.0,67,0.00,,,0.00,0.0,meteohub,2013-05-08 09:14:00,
2013-05-08 04:19:00,60.3,50.0,29.95,South,187,0.0,0.0,69,0.00,,,0.00,0.0,meteohub,2013-05-08 09:19:00,
2013-05-08 04:24:00,60.1,50.2,29.95,South,187,0.0,0.0,70,0.00,,,0.00,0.0,meteohub,2013-05-08 09:24:00,
2013-05-08 04:29:00,59.4,51.1,29.95,South,187,0.0,1.0,74,0.00,,,0.00,0.0,meteohub,2013-05-08 09:29:00,
2013-05-08 04:34:00,58.5,52.0,29.95,South,187,0.0,1.0,79,0.00,,,0.00,0.0,meteohub,2013-05-08 09:34:00,
2013-05-08 04:39:00,57.6,52.2,29.95,South,187,0.0,1.0,82,0.01,,,0.01,0.0,meteohub,2013-05-08 09:39:00,
2013-05-08 04:44:00,56.8,52.3,29.94,South,187,0.0,0.0,85,0.03,,,0.03,0.0,meteohub,2013-05-08 09:44:00,
2013-05-08 04:49:00,56.3,52.5,29.94,South,187,0.0,0.0,87,0.04,,,0.04,0.0,meteohub,2013-05-08 09:49:00,
2013-05-08 04:54:00,55.9,52.5,29.95,South,187,0.0,0.0,88,0.04,,,0.04,0.0,meteohub,2013-05-08 09:54:00,
2013-05-08 04:59:00,55.6,52.7,29.95,South,187,0.0,0.0,90,0.04,,,0.04,0.0,meteohub,2013-05-08 09:59:00,
2013-05-08 05:04:00,55.6,52.7,29.95,South,187,0.0,0.0,90,0.04,,,0.04,0.0,meteohub,2013-05-08 10:04:00,
2013-05-08 05:09:00,55.6,52.7,29.95,South,187,0.0,0.0,90,0.04,,,0.04,0.0,meteohub,2013-05-08 10:09:00,
2013-05-08 05:14:00,55.8,52.5,29.94,South,187,0.0,0.0,89,0.04,,,0.04,0.0,meteohub,2013-05-08 10:14:00,
2013-05-08 05:20:00,55.9,52.5,29.94,South,187,0.0,0.0,88,0.04,,,0.04,0.0,meteohub,2013-05-08 10:20:00,
2013-05-08 05:25:00,56.1,52.7,29.94,South,187,0.0,0.0,88,0.04,,,0.04,0.0,meteohub,2013-05-08 10:25:00,
2013-05-08 05:30:00,55.9,52.7,29.94,South,187,0.0,0.0,89,0.04,,,0.04,0.0,meteohub,2013-05-08 10:30:00,
2013-05-08 05:35:00,55.9,52.7,29.94,South,187,0.0,0.0,89,0.04,,,0.04,0.0,meteohub,2013-05-08 10:35:00,
2013-05-08 05:40:00,55.9,52.7,29.94,SSE,157,0.0,0.0,89,0.02,,,0.04,0.0,meteohub,2013-05-08 10:40:00,
2013-05-08 05:45:00,55.8,52.9,29.94,SSE,157,0.0,1.0,90,0.01,,,0.04,0.0,meteohub,2013-05-08 10:45:00,
2013-05-08 05:50:00,55.8,52.9,29.94,SSE,157,0.0,1.0,90,0.00,,,0.04,0.0,meteohub,2013-05-08 10:50:00,
2013-05-08 05:55:00,55.6,52.7,29.94,SSE,157,0.0,1.0,90,0.00,,,0.04,0.0,meteohub,2013-05-08 10:55:00,
2013-05-08 06:00:00,55.6,53.1,29.94,SSE,157,0.0,0.0,91,0.00,,,0.04,0.0,meteohub,2013-05-08 11:00:00,
2013-05-08 06:05:00,55.6,52.7,29.95,SSE,157,0.0,0.0,90,0.00,,,0.04,0.0,meteohub,2013-05-08 11:05:00,
2013-05-08 06:10:00,55.2,52.7,29.95,SSE,157,0.0,0.0,91,0.00,,,0.04,0.0,meteohub,2013-05-08 11:10:00,
2013-05-08 06:15:00,55.0,52.7,29.95,SSE,157,0.0,0.0,92,0.00,,,0.04,0.0,meteohub,2013-05-08 11:15:00,
2013-05-08 06:20:00,55.2,52.9,29.95,SSE,157,0.0,0.0,92,0.00,,,0.04,0.0,meteohub,2013-05-08 11:20:00,
2013-05-08 06:25:00,55.4,53.1,29.95,SSE,157,0.0,0.0,92,0.00,,,0.04,5.0,meteohub,2013-05-08 11:25:00,
2013-05-08 06:30:00,55.6,53.1,29.95,SSE,157,0.0,0.0,91,0.00,,,0.04,7.0,meteohub,2013-05-08 11:30:00,
2013-05-08 06:35:00,55.6,53.2,29.95,SSE,157,0.0,0.0,92,0.00,,,0.04,7.0,meteohub,2013-05-08 11:35:00,
2013-05-08 06:40:00,55.8,53.4,29.95,SSE,157,0.0,0.0,92,0.00,,,0.04,11.0,meteohub,2013-05-08 11:40:00,
2013-05-08 06:45:00,55.8,53.8,29.95,SSE,157,0.0,1.0,93,0.00,,,0.04,12.0,meteohub,2013-05-08 11:45:00,
2013-05-08 06:50:00,55.6,53.2,29.95,SSE,157,0.0,1.0,92,0.00,,,0.04,14.0,meteohub,2013-05-08 11:50:00,
2013-05-08 06:55:00,55.6,53.2,29.96,SSE,157,0.0,0.0,92,0.00,,,0.04,12.0,meteohub,2013-05-08 11:55:00,
2013-05-08 07:00:00,55.4,53.1,29.96,SSE,157,0.0,0.0,92,0.00,,,0.04,14.0,meteohub,2013-05-08 12:00:00,
2013-05-08 07:05:00,55.4,53.1,29.96,SSE,157,0.0,0.0,92,0.00,,,0.04,16.0,meteohub,2013-05-08 12:05:00,
2013-05-08 07:10:00,55.6,53.2,29.96,SSE,157,0.0,0.0,92,0.00,,,0.04,21.0,meteohub,2013-05-08 12:10:00,
2013-05-08 07:15:00,55.6,53.2,29.96,SSE,157,0.0,0.0,92,0.00,,,0.04,21.0,meteohub,2013-05-08 12:15:00,
2013-05-08 07:20:00,55.8,53.4,29.96,SSE,157,0.0,0.0,92,0.00,,,0.04,25.0,meteohub,2013-05-08 12:20:00,
2013-05-08 07:25:00,55.9,53.4,29.96,SSE,157,0.0,0.0,91,0.00,,,0.04,30.0,meteohub,2013-05-08 12:25:00,
2013-05-08 07:30:00,56.1,53.6,29.96,SSE,157,0.0,0.0,91,0.00,,,0.04,40.0,meteohub,2013-05-08 12:30:00,
2013-05-08 07:35:00,56.5,54.1,29.96,SSE,157,0.0,0.0,92,0.00,,,0.04,51.0,meteohub,2013-05-08 12:35:00,
2013-05-08 07:40:00,56.7,54.3,29.96,SSE,157,0.0,0.0,92,0.00,,,0.04,42.0,meteohub,2013-05-08 12:40:00,
2013-05-08 07:46:00,56.7,54.3,29.97,SSE,157,0.0,0.0,92,0.00,,,0.04,46.0,meteohub,2013-05-08 12:46:00,
2013-05-08 07:51:00,56.8,54.3,29.97,SSE,157,0.0,0.0,91,0.00,,,0.04,56.0,meteohub,2013-05-08 12:51:00,
2013-05-08 07:56:00,56.8,54.5,29.97,SSE,157,0.0,0.0,92,0.00,,,0.04,54.0,meteohub,2013-05-08 12:56:00,
2013-05-08 08:01:00,57.0,54.5,29.97,SSE,157,0.0,0.0,91,0.00,,,0.04,33.0,meteohub,2013-05-08 13:01:00,
2013-05-08 08:06:00,57.4,54.9,29.98,SSE,157,0.0,0.0,91,0.00,,,0.04,30.0,meteohub,2013-05-08 13:06:00,
2013-05-08 08:11:00,57.2,54.3,29.98,SSW,207,0.0,0.0,90,0.00,,,0.04,32.0,meteohub,2013-05-08 13:11:00,
2013-05-08 08:16:00,57.0,54.5,29.97,SSW,207,0.0,2.0,91,0.00,,,0.04,39.0,meteohub,2013-05-08 13:16:00,
2013-05-08 08:21:00,57.0,54.1,29.97,SSW,207,0.0,2.0,90,0.00,,,0.04,49.0,meteohub,2013-05-08 13:21:00,
2013-05-08 08:26:00,56.8,54.3,29.97,SSW,207,0.0,1.0,91,0.00,,,0.04,54.0,meteohub,2013-05-08 13:26:00,
2013-05-08 08:31:00,56.8,54.3,29.97,SSW,207,0.0,1.0,91,0.00,,,0.04,47.0,meteohub,2013-05-08 13:31:00,
2013-05-08 08:36:00,56.8,54.5,29.98,SSW,207,0.0,1.0,92,0.00,,,0.04,49.0,meteohub,2013-05-08 13:36:00,
2013-05-08 08:41:00,56.8,54.5,29.98,SSW,207,0.0,0.0,92,0.00,,,0.04,49.0,meteohub,2013-05-08 13:41:00,
2013-05-08 08:46:00,56.8,54.3,29.98,WSW,247,0.0,1.0,91,0.00,,,0.04,46.0,meteohub,2013-05-08 13:46:00,
2013-05-08 08:51:00,57.0,54.5,29.98,WSW,247,0.0,1.0,91,0.00,,,0.04,62.0,meteohub,2013-05-08 13:51:00,
2013-05-08 08:56:00,57.4,54.9,29.98,WSW,247,0.0,1.0,91,0.00,,,0.04,65.0,meteohub,2013-05-08 13:56:00,
2013-05-08 09:01:00,57.6,54.7,29.99,WSW,247,0.0,0.0,90,0.00,,,0.04,72.0,meteohub,2013-05-08 14:01:00,
2013-05-08 09:06:00,57.7,54.9,29.99,WSW,247,0.0,0.0,90,0.00,,,0.04,88.0,meteohub,2013-05-08 14:06:00,
2013-05-08 09:11:00,57.9,55.2,29.99,WSW,247,0.0,0.0,91,0.00,,,0.04,139.0,meteohub,2013-05-08 14:11:00,
2013-05-08 09:16:00,58.3,55.6,29.99,WSW,247,0.0,0.0,91,0.00,,,0.04,153.0,meteohub,2013-05-08 14:16:00,
2013-05-08 09:21:00,58.8,55.9,29.99,South,169,1.0,0.0,90,0.00,,,0.04,111.0,meteohub,2013-05-08 14:21:00,
2013-05-08 09:26:00,58.6,54.9,29.99,SW,231,0.0,2.0,87,0.00,,,0.04,72.0,meteohub,2013-05-08 14:26:00,
2013-05-08 09:31:00,58.6,54.5,29.99,SW,229,0.0,2.0,86,0.00,,,0.04,65.0,meteohub,2013-05-08 14:31:00,
2013-05-08 09:36:00,58.6,54.5,29.99,North,349,0.0,2.0,86,0.00,,,0.04,58.0,meteohub,2013-05-08 14:36:00,
2013-05-08 09:41:00,58.6,54.9,29.99,WNW,302,0.0,2.0,87,0.00,,,0.04,63.0,meteohub,2013-05-08 14:41:00,
2013-05-08 09:46:00,58.6,54.9,29.99,WNW,302,0.0,2.0,87,0.00,,,0.04,79.0,meteohub,2013-05-08 14:46:00,
2013-05-08 09:51:00,58.8,54.7,29.99,WNW,302,0.0,2.0,86,0.00,,,0.04,74.0,meteohub,2013-05-08 14:51:00,
2013-05-08 09:56:00,59.0,54.5,29.99,WNW,303,0.0,0.0,85,0.00,,,0.04,72.0,meteohub,2013-05-08 14:56:00,
2013-05-08 10:01:00,59.2,54.7,29.99,WNW,303,0.0,0.0,85,0.00,,,0.04,69.0,meteohub,2013-05-08 15:01:00,
2013-05-08 10:06:00,59.2,54.7,29.99,WNW,303,0.0,0.0,85,0.00,,,0.04,67.0,meteohub,2013-05-08 15:06:00,
2013-05-08 10:12:00,59.2,55.0,29.99,WNW,303,0.0,1.0,86,0.00,,,0.04,70.0,meteohub,2013-05-08 15:12:00,
2013-05-08 10:17:00,59.2,55.0,29.99,WNW,303,0.0,1.0,86,0.00,,,0.04,79.0,meteohub,2013-05-08 15:17:00,
2013-05-08 10:22:00,59.2,55.4,29.99,WNW,303,0.0,1.0,87,0.00,,,0.04,70.0,meteohub,2013-05-08 15:22:00,
2013-05-08 10:27:00,59.0,54.9,29.99,NNW,331,0.0,1.0,86,0.00,,,0.04,69.0,meteohub,2013-05-08 15:27:00,
2013-05-08 10:32:00,58.8,54.7,29.99,NNW,331,0.0,1.0,86,0.00,,,0.04,74.0,meteohub,2013-05-08 15:32:00,
2013-05-08 10:37:00,59.2,55.4,29.99,NNW,331,0.0,1.0,87,0.00,,,0.04,69.0,meteohub,2013-05-08 15:37:00,
2013-05-08 10:42:00,58.8,54.7,29.99,NNW,331,0.0,1.0,86,0.00,,,0.04,58.0,meteohub,2013-05-08 15:42:00,
2013-05-08 10:47:00,58.8,55.0,29.99,NNW,331,0.0,1.0,87,0.00,,,0.04,60.0,meteohub,2013-05-08 15:47:00,
2013-05-08 10:52:00,58.8,55.0,30.00,NNW,331,0.0,1.0,87,0.00,,,0.04,83.0,meteohub,2013-05-08 15:52:00,
2013-05-08 10:57:00,59.2,55.6,30.00,North,5,0.0,1.0,88,0.00,,,0.04,105.0,meteohub,2013-05-08 15:57:00,
2013-05-08 11:02:00,59.2,55.6,29.99,WNW,298,0.0,2.0,88,0.00,,,0.04,107.0,meteohub,2013-05-08 16:02:00,
2013-05-08 11:07:00,59.2,55.6,30.00,WNW,300,0.0,2.0,88,0.00,,,0.04,109.0,meteohub,2013-05-08 16:07:00,
2013-05-08 11:12:00,59.0,55.8,29.99,NW,304,0.0,2.0,89,0.00,,,0.04,113.0,meteohub,2013-05-08 16:12:00,
2013-05-08 11:17:00,58.8,55.9,29.99,NW,304,0.0,2.0,90,0.01,,,0.05,109.0,meteohub,2013-05-08 16:17:00,
2013-05-08 11:22:00,58.8,56.1,29.99,NW,304,0.0,2.0,91,0.02,,,0.06,100.0,meteohub,2013-05-08 16:22:00,
2013-05-08 11:27:00,58.8,55.9,29.99,NNW,337,0.0,1.0,90,0.02,,,0.06,113.0,meteohub,2013-05-08 16:27:00,
2013-05-08 11:32:00,58.8,56.1,29.99,NNW,337,0.0,1.0,91,0.03,,,0.07,139.0,meteohub,2013-05-08 16:32:00,
2013-05-08 11:37:00,58.8,56.5,29.98,NNE,14,0.0,3.0,92,0.04,,,0.08,165.0,meteohub,2013-05-08 16:37:00,
2013-05-08 11:42:00,58.8,56.5,29.99,NNE,17,1.0,3.0,92,0.04,,,0.08,135.0,meteohub,2013-05-08 16:42:00,
2013-05-08 11:47:00,58.8,56.5,29.99,NNW,345,1.0,3.0,92,0.04,,,0.08,120.0,meteohub,2013-05-08 16:47:00,
2013-05-08 11:52:00,58.8,56.1,29.99,North,0,0.0,3.0,91,0.04,,,0.08,121.0,meteohub,2013-05-08 16:52:00,
2013-05-08 11:57:00,59.2,56.8,29.99,NNE,17,0.0,3.0,92,0.04,,,0.08,114.0,meteohub,2013-05-08 16:57:00,
2013-05-08 12:02:00,59.0,56.3,29.99,NNE,17,0.0,3.0,91,0.04,,,0.08,139.0,meteohub,2013-05-08 17:02:00,
2013-05-08 12:07:00,58.8,55.9,29.99,NE,46,1.0,3.0,90,0.04,,,0.08,144.0,meteohub,2013-05-08 17:07:00,
2013-05-08 12:12:00,59.0,56.3,29.99,NE,40,0.0,2.0,91,0.04,,,0.09,90.0,meteohub,2013-05-08 17:12:00,
2013-05-08 12:17:00,58.8,55.9,29.99,ENE,67,0.0,2.0,90,0.05,,,0.10,153.0,meteohub,2013-05-08 17:17:00,
2013-05-08 12:22:00,58.8,56.5,29.99,ENE,59,0.0,1.0,92,0.04,,,0.10,169.0,meteohub,2013-05-08 17:22:00,
2013-05-08 12:27:00,59.0,56.3,29.99,ENE,59,0.0,1.0,91,0.03,,,0.10,144.0,meteohub,2013-05-08 17:27:00,
2013-05-08 12:32:00,58.8,55.9,29.99,East,81,0.0,1.0,90,0.04,,,0.11,132.0,meteohub,2013-05-08 17:32:00,
2013-05-08 12:37:00,58.6,55.9,29.99,East,81,0.0,3.0,91,0.03,,,0.11,132.0,meteohub,2013-05-08 17:37:00,
2013-05-08 12:42:00,58.6,55.9,29.99,East,81,0.0,3.0,91,0.04,,,0.12,141.0,meteohub,2013-05-08 17:42:00,
2013-05-08 12:47:00,58.6,55.9,29.99,East,81,0.0,3.0,91,0.04,,,0.12,134.0,meteohub,2013-05-08 17:47:00,
2013-05-08 12:52:00,58.8,56.5,29.99,East,81,0.0,1.0,92,0.04,,,0.12,114.0,meteohub,2013-05-08 17:52:00,
2013-05-08 12:57:00,58.8,56.1,29.99,North,355,1.0,1.0,91,0.04,,,0.12,77.0,meteohub,2013-05-08 17:57:00,
2013-05-08 13:02:00,58.6,55.9,29.99,ESE,114,0.0,2.0,91,0.05,,,0.13,128.0,meteohub,2013-05-08 18:02:00,
2013-05-08 13:07:00,58.6,56.3,29.99,SW,215,0.0,2.0,92,0.05,,,0.14,142.0,meteohub,2013-05-08 18:07:00,
2013-05-08 13:12:00,58.8,56.5,29.99,SW,215,0.0,2.0,92,0.05,,,0.14,93.0,meteohub,2013-05-08 18:12:00,
2013-05-08 13:17:00,58.6,56.3,29.99,SW,215,0.0,2.0,92,0.05,,,0.15,116.0,meteohub,2013-05-08 18:17:00,
2013-05-08 13:22:00,58.6,56.3,29.99,SW,215,0.0,1.0,92,0.06,,,0.16,113.0,meteohub,2013-05-08 18:22:00,
2013-05-08 13:27:00,58.6,56.3,29.99,NW,321,0.0,1.0,92,0.06,,,0.16,83.0,meteohub,2013-05-08 18:27:00,
2013-05-08 13:32:00,58.6,56.3,29.99,NW,325,1.0,2.0,92,0.06,,,0.17,98.0,meteohub,2013-05-08 18:32:00,
2013-05-08 13:38:00,58.6,56.3,29.99,NW,325,0.0,2.0,92,0.06,,,0.17,77.0,meteohub,2013-05-08 18:38:00,
2013-05-08 13:43:00,58.5,55.8,29.99,North,350,0.0,2.0,91,0.05,,,0.17,47.0,meteohub,2013-05-08 18:43:00,
2013-05-08 13:48:00,58.5,56.1,29.99,North,350,0.0,1.0,92,0.05,,,0.17,47.0,meteohub,2013-05-08 18:48:00,
2013-05-08 13:53:00,58.5,56.5,29.99,North,350,0.0,1.0,93,0.05,,,0.17,40.0,meteohub,2013-05-08 18:53:00,
2013-05-08 13:58:00,58.3,55.9,29.99,NNE,20,0.0,2.0,92,0.04,,,0.17,77.0,meteohub,2013-05-08 18:58:00,
2013-05-08 14:03:00,58.5,56.5,29.99,NNE,20,0.0,2.0,93,0.04,,,0.17,179.0,meteohub,2013-05-08 19:03:00,
2013-05-08 14:08:00,59.2,57.4,29.99,NNE,20,0.0,2.0,94,0.03,,,0.17,264.0,meteohub,2013-05-08 19:08:00,
2013-05-08 14:13:00,59.5,57.2,29.99,ENE,57,2.0,2.0,92,0.03,,,0.17,192.0,meteohub,2013-05-08 19:13:00,
2013-05-08 14:18:00,59.7,56.8,29.99,ESE,111,0.0,1.0,90,0.01,,,0.17,204.0,meteohub,2013-05-08 19:18:00,
2013-05-08 14:23:00,59.7,56.5,30.00,SSW,213,0.0,3.0,89,0.01,,,0.17,137.0,meteohub,2013-05-08 19:23:00,
2013-05-08 14:28:00,59.7,56.5,30.00,WNW,285,0.0,3.0,89,0.01,,,0.17,127.0,meteohub,2013-05-08 19:28:00,
2013-05-08 14:33:00,59.7,56.5,29.99,WNW,285,0.0,1.0,89,0.00,,,0.17,83.0,meteohub,2013-05-08 19:33:00,
2013-05-08 14:38:00,59.7,56.5,30.00,WNW,285,0.0,1.0,89,0.00,,,0.17,65.0,meteohub,2013-05-08 19:38:00,
2013-05-08 14:43:00,59.5,56.3,30.00,NW,321,0.0,1.0,89,0.00,,,0.17,46.0,meteohub,2013-05-08 19:43:00,
2013-05-08 14:48:00,59.4,56.5,30.00,NW,321,0.0,1.0,90,0.00,,,0.17,33.0,meteohub,2013-05-08 19:48:00,
2013-05-08 14:53:00,59.2,56.5,30.00,East,90,0.0,1.0,91,0.00,,,0.17,37.0,meteohub,2013-05-08 19:53:00,
2013-05-08 14:58:00,58.6,55.9,30.00,NE,39,0.0,1.0,91,0.00,,,0.17,42.0,meteohub,2013-05-08 19:58:00,
2013-05-08 15:03:00,58.5,56.1,30.00,NE,39,0.0,2.0,92,0.00,,,0.17,40.0,meteohub,2013-05-08 20:03:00,
2013-05-08 15:08:00,58.3,56.3,30.00,NE,37,0.0,2.0,93,0.01,,,0.18,37.0,meteohub,2013-05-08 20:08:00,
2013-05-08 15:13:00,58.3,56.5,30.00,NE,37,0.0,2.0,94,0.01,,,0.18,49.0,meteohub,2013-05-08 20:13:00,
2013-05-08 15:18:00,58.3,56.5,30.00,NNE,27,0.0,2.0,94,0.01,,,0.18,39.0,meteohub,2013-05-08 20:18:00,
2013-05-08 15:23:00,58.1,56.3,30.00,NNE,19,0.0,3.0,94,0.01,,,0.18,35.0,meteohub,2013-05-08 20:23:00,
2013-05-08 15:28:00,58.1,56.7,30.00,NNE,19,0.0,3.0,95,0.01,,,0.18,30.0,meteohub,2013-05-08 20:28:00,
2013-05-08 15:33:00,57.9,56.1,29.99,North,5,0.0,1.0,94,0.01,,,0.18,40.0,meteohub,2013-05-08 20:33:00,
2013-05-08 15:38:00,58.3,56.8,29.99,North,5,0.0,3.0,95,0.01,,,0.18,56.0,meteohub,2013-05-08 20:38:00,
2013-05-08 15:43:00,58.3,56.8,29.99,North,355,0.0,3.0,95,0.01,,,0.18,118.0,meteohub,2013-05-08 20:43:00,
2013-05-08 15:48:00,58.5,57.0,29.99,North,355,0.0,3.0,95,0.01,,,0.18,206.0,meteohub,2013-05-08 20:48:00,
2013-05-08 15:53:00,59.0,57.6,29.99,North,355,1.0,2.0,95,0.01,,,0.18,207.0,meteohub,2013-05-08 20:53:00,
2013-05-08 15:58:00,59.2,57.4,29.99,NNE,13,0.0,3.0,94,0.02,,,0.19,195.0,meteohub,2013-05-08 20:58:00,
2013-05-08 16:03:00,59.0,57.0,29.99,East,86,0.0,3.0,93,0.02,,,0.19,195.0,meteohub,2013-05-08 21:03:00,
2013-05-08 16:08:00,59.2,57.4,29.99,North,11,0.0,3.0,94,0.01,,,0.19,227.0,meteohub,2013-05-08 21:08:00,
2013-05-08 16:13:00,59.4,57.6,29.99,North,5,3.0,4.0,94,0.01,,,0.19,243.0,meteohub,2013-05-08 21:13:00,
2013-05-08 16:18:00,59.5,57.6,29.99,NE,45,1.0,4.0,93,0.01,,,0.19,264.0,meteohub,2013-05-08 21:18:00,
2013-05-08 16:23:00,59.5,57.6,29.98,NNE,24,1.0,4.0,93,0.01,,,0.19,350.0,meteohub,2013-05-08 21:23:00,
2013-05-08 16:29:00,59.7,57.7,29.98,ENE,65,1.0,4.0,93,0.01,,,0.19,269.0,meteohub,2013-05-08 21:29:00,
2013-05-08 16:33:00,59.7,57.7,29.99,East,90,1.0,4.0,93,0.01,,,0.19,214.0,meteohub,2013-05-08 21:33:00,
2013-05-08 16:39:00,59.5,56.8,29.98,North,9,1.0,4.0,91,0.01,,,0.19,185.0,meteohub,2013-05-08 21:39:00,
2013-05-08 16:44:00,59.5,56.8,29.98,NNE,32,2.0,4.0,91,0.01,,,0.19,188.0,meteohub,2013-05-08 21:44:00,
2013-05-08 16:49:00,59.5,56.8,29.98,North,355,3.0,4.0,91,0.01,,,0.19,185.0,meteohub,2013-05-08 21:49:00,
2013-05-08 16:54:00,59.5,57.2,29.98,NNE,32,1.0,3.0,92,0.00,,,0.19,185.0,meteohub,2013-05-08 21:54:00,
2013-05-08 16:59:00,59.5,57.2,29.98,NE,38,1.0,7.0,92,0.00,,,0.19,181.0,meteohub,2013-05-08 21:59:00,
2013-05-08 17:04:00,60.1,57.7,29.98,ENE,59,0.0,7.0,92,0.00,,,0.19,167.0,meteohub,2013-05-08 22:04:00,
2013-05-08 17:09:00,60.1,57.4,29.98,NNE,12,3.0,7.0,91,0.00,,,0.19,134.0,meteohub,2013-05-08 22:09:00,
2013-05-08 17:14:00,59.7,57.0,29.98,NNE,32,3.0,5.0,91,0.00,,,0.19,118.0,meteohub,2013-05-08 22:14:00,
2013-05-08 17:19:00,59.5,56.8,29.98,NNE,18,0.0,5.0,91,0.00,,,0.19,109.0,meteohub,2013-05-08 22:19:00,
2013-05-08 17:24:00,59.7,57.4,29.98,NNE,31,4.0,5.0,92,0.00,,,0.19,107.0,meteohub,2013-05-08 22:24:00,
2013-05-08 17:29:00,59.5,57.2,29.98,NNE,23,4.0,5.0,92,0.00,,,0.19,118.0,meteohub,2013-05-08 22:29:00,
2013-05-08 17:34:00,59.5,57.2,29.98,North,5,3.0,5.0,92,0.00,,,0.19,93.0,meteohub,2013-05-08 22:34:00,
2013-05-08 17:39:00,59.7,57.7,29.98,NNE,24,3.0,7.0,93,0.00,,,0.19,74.0,meteohub,2013-05-08 22:39:00,
2013-05-08 17:44:00,59.5,57.6,29.98,North,11,2.0,7.0,93,0.00,,,0.19,84.0,meteohub,2013-05-08 22:44:00,
2013-05-08 17:49:00,59.5,57.6,29.97,NNE,26,2.0,7.0,93,0.00,,,0.19,95.0,meteohub,2013-05-08 22:49:00,
2013-05-08 17:54:00,59.7,57.7,29.97,North,9,2.0,5.0,93,0.00,,,0.19,120.0,meteohub,2013-05-08 22:54:00,
2013-05-08 17:59:00,59.7,57.0,29.97,NNE,13,2.0,5.0,91,0.01,,,0.20,132.0,meteohub,2013-05-08 22:59:00,
2013-05-08 18:04:00,60.1,57.7,29.97,NNW,344,1.0,5.0,92,0.01,,,0.20,123.0,meteohub,2013-05-08 23:04:00,
2013-05-08 18:09:00,60.1,57.7,29.97,North,0,1.0,6.0,92,0.01,,,0.20,114.0,meteohub,2013-05-08 23:09:00,
2013-05-08 18:14:00,60.3,57.9,29.97,NNW,348,5.0,6.0,92,0.01,,,0.20,105.0,meteohub,2013-05-08 23:14:00,
2013-05-08 18:19:00,60.3,57.6,29.97,NE,49,2.0,6.0,91,0.01,,,0.20,100.0,meteohub,2013-05-08 23:19:00,
2013-05-08 18:24:00,60.3,57.6,29.97,NNE,17,3.0,6.0,91,0.01,,,0.20,111.0,meteohub,2013-05-08 23:24:00,
2013-05-08 18:29:00,60.3,57.6,29.97,NNW,333,4.0,6.0,91,0.01,,,0.20,123.0,meteohub,2013-05-08 23:29:00,
2013-05-08 18:34:00,60.4,57.7,29.97,NE,46,2.0,6.0,91,0.01,,,0.20,111.0,meteohub,2013-05-08 23:34:00,
2013-05-08 18:39:00,60.4,57.7,29.97,NNE,19,2.0,5.0,91,0.01,,,0.20,109.0,meteohub,2013-05-08 23:39:00,
2013-05-08 18:44:00,60.4,57.7,29.97,NE,44,0.0,5.0,91,0.01,,,0.20,97.0,meteohub,2013-05-08 23:44:00,
2013-05-08 18:49:00,60.4,57.7,29.97,NE,53,0.0,7.0,91,0.01,,,0.20,91.0,meteohub,2013-05-08 23:49:00,
2013-05-08 18:54:00,60.4,57.7,29.97,North,9,2.0,7.0,91,0.01,,,0.20,88.0,meteohub,2013-05-08 23:54:00,
2013-05-08 18:59:00,60.4,57.7,29.97,ENE,61,0.0,7.0,91,0.00,,,0.20,97.0,meteohub,2013-05-08 23:59:00,
2013-05-08 19:05:00,60.4,57.7,29.97,NNE,27,1.0,7.0,91,0.00,,,0.20,105.0,meteohub,2013-05-09 00:05:00,
2013-05-08 19:10:00,60.6,57.9,29.97,NE,45,1.0,7.0,91,0.00,,,0.20,90.0,meteohub,2013-05-09 00:10:00,
2013-05-08 19:15:00,60.6,57.9,29.97,NNE,31,2.0,6.0,91,0.00,,,0.20,70.0,meteohub,2013-05-09 00:15:00,
2013-05-08 19:20:00,60.6,57.9,29.97,NNE,13,2.0,6.0,91,0.00,,,0.20,67.0,meteohub,2013-05-09 00:20:00,
2013-05-08 19:25:00,60.6,57.9,29.97,NE,35,1.0,6.0,91,0.00,,,0.20,60.0,meteohub,2013-05-09 00:25:00,
2013-05-08 19:30:00,60.6,57.9,29.98,NE,40,1.0,6.0,91,0.00,,,0.20,58.0,meteohub,2013-05-09 00:30:00,
2013-05-08 19:35:00,60.6,57.9,29.98,NNE,30,0.0,5.0,91,0.00,,,0.20,40.0,meteohub,2013-05-09 00:35:00,
2013-05-08 19:40:00,60.6,57.9,29.97,North,5,1.0,4.0,91,0.00,,,0.20,35.0,meteohub,2013-05-09 00:40:00,
2013-05-08 19:45:00,60.4,57.7,29.98,North,5,0.0,4.0,91,0.00,,,0.20,32.0,meteohub,2013-05-09 00:45:00,
2013-05-08 19:50:00,60.4,57.7,29.98,NE,36,0.0,4.0,91,0.00,,,0.20,28.0,meteohub,2013-05-09 00:50:00,
2013-05-08 19:55:00,60.3,57.6,29.98,NE,36,0.0,3.0,91,0.00,,,0.20,21.0,meteohub,2013-05-09 00:55:00,
2013-05-08 20:00:00,60.3,57.6,29.98,NNE,22,0.0,3.0,91,0.00,,,0.20,18.0,meteohub,2013-05-09 01:00:00,
2013-05-08 20:05:00,60.1,57.4,29.98,NNE,21,0.0,2.0,91,0.00,,,0.20,16.0,meteohub,2013-05-09 01:05:00,
2013-05-08 20:10:00,60.1,57.4,29.98,NNE,20,1.0,3.0,91,0.00,,,0.20,14.0,meteohub,2013-05-09 01:10:00,
2013-05-08 20:15:00,59.9,57.2,29.98,NNE,18,1.0,3.0,91,0.00,,,0.20,12.0,meteohub,2013-05-09 01:15:00,
2013-05-08 20:20:00,59.7,57.0,29.98,NNE,17,0.0,4.0,91,0.00,,,0.20,11.0,meteohub,2013-05-09 01:20:00,
2013-05-08 20:25:00,59.7,56.8,29.99,NNE,17,1.0,4.0,90,0.00,,,0.20,7.0,meteohub,2013-05-09 01:25:00,
2013-05-08 20:31:00,59.7,56.8,29.99,NNE,30,0.0,2.0,90,0.00,,,0.20,5.0,meteohub,2013-05-09 01:31:00,
2013-05-08 20:36:00,59.5,56.7,29.99,NNE,31,0.0,2.0,90,0.00,,,0.20,0.0,meteohub,2013-05-09 01:36:00,
2013-05-08 20:41:00,59.4,56.5,29.99,NE,42,1.0,2.0,90,0.00,,,0.20,0.0,meteohub,2013-05-09 01:41:00,
2013-05-08 20:46:00,59.4,56.5,29.99,NE,42,0.0,2.0,90,0.00,,,0.20,0.0,meteohub,2013-05-09 01:46:00,
2013-05-08 20:51:00,59.2,56.5,29.99,NE,42,0.0,2.0,91,0.00,,,0.20,0.0,meteohub,2013-05-09 01:51:00,
2013-05-08 20:56:00,59.0,56.3,30.00,NNE,13,1.0,2.0,91,0.00,,,0.20,0.0,meteohub,2013-05-09 01:56:00,
2013-05-08 21:01:00,58.8,56.1,30.00,NNE,13,0.0,2.0,91,0.00,,,0.20,0.0,meteohub,2013-05-09 02:01:00,
2013-05-08 21:06:00,58.6,55.9,30.00,NNE,13,0.0,2.0,91,0.00,,,0.20,0.0,meteohub,2013-05-09 02:06:00,
2013-05-08 21:11:00,58.6,55.9,30.00,NNE,13,0.0,2.0,91,0.00,,,0.20,0.0,meteohub,2013-05-09 02:11:00,
2013-05-08 21:16:00,58.5,55.8,30.00,NNE,15,1.0,1.0,91,0.00,,,0.20,0.0,meteohub,2013-05-09 02:16:00,
2013-05-08 21:21:00,58.5,55.8,30.00,NE,34,0.0,3.0,91,0.00,,,0.20,0.0,meteohub,2013-05-09 02:21:00,
2013-05-08 21:26:00,58.5,55.8,30.00,North,0,0.0,3.0,91,0.00,,,0.20,0.0,meteohub,2013-05-09 02:26:00,
2013-05-08 21:31:00,58.5,55.8,30.00,North,0,0.0,3.0,91,0.00,,,0.20,0.0,meteohub,2013-05-09 02:31:00,
2013-05-08 21:36:00,58.3,55.6,30.00,North,0,0.0,3.0,91,0.00,,,0.20,0.0,meteohub,2013-05-09 02:36:00,
2013-05-08 21:41:00,57.9,55.6,30.01,North,0,0.0,1.0,92,0.00,,,0.20,0.0,meteohub,2013-05-09 02:41:00,
2013-05-08 21:46:00,57.7,55.4,30.01,North,0,0.0,1.0,92,0.00,,,0.20,0.0,meteohub,2013-05-09 02:46:00,
2013-05-08 21:51:00,57.7,55.8,30.01,North,0,0.0,1.0,93,0.00,,,0.20,0.0,meteohub,2013-05-09 02:51:00,
2013-05-08 21:56:00,57.6,55.6,30.01,North,355,0.0,2.0,93,0.00,,,0.20,0.0,meteohub,2013-05-09 02:56:00,
2013-05-08 22:01:00,57.6,55.2,30.01,NE,49,0.0,4.0,92,0.00,,,0.20,0.0,meteohub,2013-05-09 03:01:00,
2013-05-08 22:06:00,57.4,55.0,30.01,SE,130,0.0,4.0,92,0.00,,,0.20,0.0,meteohub,2013-05-09 03:06:00,
2013-05-08 22:11:00,57.4,55.0,30.02,NE,42,1.0,4.0,92,0.00,,,0.20,0.0,meteohub,2013-05-09 03:11:00,
2013-05-08 22:16:00,57.0,55.0,30.02,NNE,25,0.0,3.0,93,0.00,,,0.20,0.0,meteohub,2013-05-09 03:16:00,
2013-05-08 22:21:00,57.0,55.0,30.02,North,5,0.0,3.0,93,0.01,,,0.21,0.0,meteohub,2013-05-09 03:21:00,
2013-05-08 22:26:00,56.8,55.2,30.02,North,9,0.0,3.0,94,0.01,,,0.21,0.0,meteohub,2013-05-09 03:26:00,
2013-05-08 22:31:00,56.7,55.0,30.02,North,5,0.0,2.0,94,0.03,,,0.23,0.0,meteohub,2013-05-09 03:31:00,
2013-05-08 22:36:00,56.7,55.0,30.02,NNW,347,0.0,2.0,94,0.04,,,0.24,0.0,meteohub,2013-05-09 03:36:00,
2013-05-08 22:41:00,56.5,55.0,30.02,North,5,0.0,2.0,95,0.05,,,0.25,0.0,meteohub,2013-05-09 03:41:00,
2013-05-08 22:46:00,56.3,54.9,30.02,North,9,0.0,2.0,95,0.06,,,0.26,0.0,meteohub,2013-05-09 03:46:00,
2013-05-08 22:51:00,56.3,54.9,30.02,North,9,0.0,2.0,95,0.07,,,0.27,0.0,meteohub,2013-05-09 03:51:00,
2013-05-08 22:56:00,56.3,54.9,30.02,NNW,331,0.0,2.0,95,0.08,,,0.28,0.0,meteohub,2013-05-09 03:56:00,
2013-05-08 23:00:00,56.1,54.7,30.02,NNW,331,0.0,2.0,95,0.08,,,0.28,0.0,meteohub,2013-05-09 04:00:00,
2013-05-08 23:02:00,56.1,54.7,30.02,NNW,331,0.0,2.0,95,0.08,,,0.28,0.0,meteohub,2013-05-09 04:02:00,
2013-05-08 23:07:00,56.1,55.0,30.02,NNW,331,0.0,2.0,96,0.09,,,0.29,0.0,meteohub,2013-05-09 04:07:00,
2013-05-08 23:12:00,55.9,54.9,30.02,NNW,331,0.0,0.0,96,0.09,,,0.29,0.0,meteohub,2013-05-09 04:12:00,
2013-05-08 23:15:00,55.9,54.9,30.02,NNW,331,0.0,1.0,96,0.09,,,0.29,0.0,meteohub,2013-05-09 04:15:00,
2013-05-08 23:16:00,55.9,54.9,30.02,NNW,331,0.0,1.0,96,0.09,,,0.29,0.0,meteohub,2013-05-09 04:16:00,
2013-05-08 23:21:00,55.9,54.9,30.02,NNW,331,0.0,1.0,96,0.08,,,0.29,0.0,meteohub,2013-05-09 04:21:00,
2013-05-08 23:26:00,55.8,54.7,30.02,NNW,331,0.0,1.0,96,0.08,,,0.30,0.0,meteohub,2013-05-09 04:26:00,
2013-05-08 23:31:00,55.8,54.7,30.01,North,0,0.0,1.0,96,0.07,,,0.30,0.0,meteohub,2013-05-09 04:31:00,
2013-05-08 23:36:00,55.8,54.7,30.01,NE,46,0.0,1.0,96,0.06,,,0.30,0.0,meteohub,2013-05-09 04:36:00,
2013-05-08 23:41:00,55.8,54.7,30.01,NE,46,0.0,2.0,96,0.04,,,0.30,0.0,meteohub,2013-05-09 04:41:00,
2013-05-08 23:46:00,55.8,54.7,30.01,NE,47,1.0,2.0,96,0.03,,,0.30,0.0,meteohub,2013-05-09 04:46:00,
2013-05-08 23:51:00,55.8,54.7,30.01,NE,44,0.0,3.0,96,0.03,,,0.30,0.0,meteohub,2013-05-09 04:51:00,
2013-05-08 23:56:00,55.8,54.7,30.01,NE,37,2.0,3.0,96,0.02,,,0.30,0.0,meteohub,2013-05-09 04:56:00,